Location: Bad Salzschlirf
(50.3750°N, 9.3000°E)
Time: 02:50:18
(UTC+02:00)

ISS - Pass Details

Date: 11 July 2025
Orbit: 413 x 417 km, 51.6° (Epoch: 12 July)

Event Time Altitude Azimuth Distance (km) Brightness Sun altitude
Rises 00:22:31 0° 269° (W) 2,352 0.2 -16.1°
Reaches altitude 10° 00:24:37 10° 272° (W) 1,490 -0.8 -16.2°
Maximum altitude 00:27:57 69° 356° (N) 448 -3.5 -16.3°
Drops below altitude 10° 00:31:18 10° 81° (E) 1,493 -1.0 -16.4°
Sets 00:33:24 0° 84° (E) 2,357 0.0 -16.5°
